| time (UTC) | temp F | wind direction | speed MPH | gust MPH | rain 1hr in | rain 24hr in | rain mn in | humidity % | barometer mb |
| 20260906011527 | 86 | 14 | 0.0 | 0.0 | 0.00 | 0.00 | 0.00 | 74 | 1009.6 |
| 20260906010028 | 88 | 14 | 0.0 | 0.0 | 0.00 | 0.00 | 0.00 | 71 | 1009.4 |
| 20260906004527 | 89 | 14 | 0.0 | 0.0 | 0.00 | 0.00 | 0.00 | 67 | 1009.4 |
| 20260906003027 | 90 | 14 | 0.0 | 0.0 | 0.00 | 0.00 | 0.00 | 65 | 1009.4 |
| 20260906001525 | 92 | 14 | 0.0 | 0.0 | 0.00 | 0.00 | 0.00 | 63 | 1009.4 |
| 20260906000029 | 94 | 14 | 0.0 | 0.0 | 0.00 | 0.00 | 0.00 | 60 | 1009.4 |
| 20260905234524 | 95 | 14 | 0.0 | 0.0 | 0.00 | 0.00 | 0.00 | 55 | 1009.4 |
| 20260905233027 | 96 | 14 | 0.0 | 0.0 | 0.00 | 0.00 | 0.00 | 52 | 1009.4 |
| 20260905231522 | 97 | 14 | 0.0 | 1.0 | 0.00 | 0.00 | 0.00 | 50 | 1009.5 |
| 20260905230022 | 97 | 17 | 0.0 | 1.0 | 0.00 | 0.00 | 0.00 | 49 | 1009.6 |
| 20260905224522 | 97 | 5 | 0.0 | 2.0 | 0.00 | 0.00 | 0.00 | 51 | 1009.5 |
| 20260905223022 | 97 | 310 | 0.0 | 0.0 | 0.00 | 0.00 | 0.00 | 51 | 1009.5 |
| 20260905221520 | 97 | 29 | 0.0 | 5.0 | 0.00 | 0.00 | 0.00 | 52 | 1009.6 |
| 20260905220024 | 98 | 32 | 0.0 | 2.0 | 0.00 | 0.00 | 0.00 | 52 | 1009.6 |
| 20260905214520 | 98 | 65 | 0.0 | 7.0 | 0.00 | 0.00 | 0.00 | 50 | 1009.7 |
| 20260905213022 | 100 | 35 | 0.0 | 5.0 | 0.00 | 0.00 | 0.00 | 47 | 1009.5 |
| 20260905211518 | 100 | 34 | 0.0 | 1.0 | 0.00 | 0.00 | 0.00 | 44 | 1009.7 |
| 20260905210016 | 101 | 11 | 0.0 | 5.0 | 0.00 | 0.00 | 0.00 | 44 | 1009.9 |
| 20260905204516 | 101 | 5 | 0.0 | 2.0 | 0.00 | 0.00 | 0.00 | 46 | 1010.0 |
| 20260905203015 | 101 | 350 | 1.0 | 8.0 | 0.00 | 0.00 | 0.00 | 46 | 1010.2 |
| 20260905201511 | 102 | 21 | 1.0 | 4.0 | 0.00 | 0.00 | 0.00 | 46 | 1010.5 |
| 20260905200009 | 102 | 16 | 0.0 | 4.0 | 0.00 | 0.00 | 0.00 | 45 | 1010.5 |
| 20260905194508 | 101 | 5 | 0.0 | 6.0 | 0.00 | 0.00 | 0.00 | 46 | 1010.8 |
| 20260905193004 | 99 | 46 | 0.0 | 1.0 | 0.00 | 0.00 | 0.00 | 46 | 1011.1 |
| 20260905191502 | 100 | 20 | 0.0 | 0.0 | 0.00 | 0.00 | 0.00 | 46 | 1011.3 |
| 20260905190100 | 101 | 360 | 0.0 | 3.0 | 0.00 | 0.00 | 0.00 | 46 | 1011.4 |
| 20260905184609 | 100 | 5 | 0.0 | 5.0 | 0.00 | 0.00 | 0.00 | 47 | 1011.6 |
| 20260905183055 | 100 | 19 | 1.0 | 6.0 | 0.00 | 0.00 | 0.00 | 49 | 1011.7 |
| 20260905181553 | 99 | 18 | 0.0 | 2.0 | 0.00 | 0.00 | 0.00 | 49 | 1011.8 |
| 20260905180053 | 100 | 49 | 0.0 | 3.0 | 0.00 | 0.00 | 0.00 | 50 | 1012.0 |
| 20260905174557 | 100 | 32 | 1.0 | 5.0 | 0.00 | 0.00 | 0.00 | 50 | 1012.2 |
| 20260905173102 | 100 | 32 | 0.0 | 2.0 | 0.00 | 0.00 | 0.00 | 49 | 1012.2 |
| 20260905171548 | 99 | 50 | 0.0 | 1.0 | 0.00 | 0.00 | 0.00 | 52 | 1012.3 |
| 20260905170048 | 98 | 42 | 0.0 | 3.0 | 0.00 | 0.00 | 0.00 | 55 | 1012.6 |
| 20260905164544 | 98 | 198 | 0.0 | 0.0 | 0.00 | 0.00 | 0.00 | 55 | 1012.7 |
| 20260905163050 | 97 | 57 | 0.0 | 3.0 | 0.00 | 0.00 | 0.00 | 56 | 1012.9 |
| 20260905161537 | 96 | 91 | 0.0 | 5.0 | 0.00 | 0.00 | 0.00 | 58 | 1013.0 |
| 20260905160047 | 95 | 37 | 0.0 | 1.0 | 0.00 | 0.00 | 0.00 | 62 | 1013.2 |
| 20260905154531 | 94 | 34 | 0.0 | 1.0 | 0.00 | 0.00 | 0.00 | 63 | 1013.2 |
| 20260905153028 | 93 | 42 | 0.0 | 1.0 | 0.00 | 0.00 | 0.00 | 65 | 1013.2 |
| 20260905151526 | 93 | 36 | 0.0 | 1.0 | 0.00 | 0.00 | 0.00 | 65 | 1013.2 |
| 20260905150028 | 92 | 298 | 0.0 | 0.0 | 0.00 | 0.00 | 0.00 | 66 | 1013.4 |
| 20260905144539 | 91 | 31 | 0.0 | 1.0 | 0.00 | 0.00 | 0.00 | 67 | 1013.3 |
| 20260905143023 | 91 | 181 | 0.0 | 0.0 | 0.00 | 0.00 | 0.00 | 67 | 1013.2 |
| 20260905141520 | 89 | 183 | 0.0 | 0.0 | 0.00 | 0.00 | 0.00 | 69 | 1013.2 |
| 20260905140010 | 87 | 168 | 0.0 | 1.0 | 0.00 | 0.00 | 0.00 | 72 | 1013.1 |
| 20260905134512 | 85 | 173 | 0.0 | 0.0 | 0.00 | 0.00 | 0.00 | 75 | 1013.1 |
| 20260905133001 | 83 | 173 | 0.0 | 0.0 | 0.00 | 0.00 | 0.00 | 81 | 1013.1 |
| 20260905131600 | 80 | 173 | 0.0 | 0.0 | 0.00 | 0.00 | 0.00 | 86 | 1013.1 |
| 20260905130100 | 78 | 173 | 0.0 | 0.0 | 0.00 | 0.00 | 0.00 | 90 | 1013.0 |
| 20260905124557 | 77 | 173 | 0.0 | 0.0 | 0.00 | 0.00 | 0.00 | 91 | 1013.1 |
| 20260905123059 | 76 | 173 | 0.0 | 0.0 | 0.00 | 0.00 | 0.00 | 92 | 1012.9 |
| 20260905121553 | 75 | 173 | 0.0 | 0.0 | 0.00 | 0.00 | 0.00 | 92 | 1012.8 |
| 20260905120057 | 75 | 173 | 0.0 | 0.0 | 0.00 | 0.00 | 0.00 | 92 | 1012.7 |
| 20260905114625 | 75 | 173 | 0.0 | 0.0 | 0.00 | 0.00 | 0.00 | 92 | 1012.7 |
| 20260905113051 | 75 | 173 | 0.0 | 0.0 | 0.00 | 0.00 | 0.00 | 92 | 1012.5 |
| 20260905111553 | 75 | 173 | 0.0 | 0.0 | 0.00 | 0.00 | 0.00 | 92 | 1012.4 |
| 20260905110048 | 75 | 173 | 0.0 | 0.0 | 0.00 | 0.00 | 0.00 | 92 | 1012.4 |
| 20260905104548 | 75 | 173 | 0.0 | 0.0 | 0.00 | 0.00 | 0.00 | 91 | 1012.3 |
| 20260905103046 | 76 | 173 | 0.0 | 0.0 | 0.00 | 0.00 | 0.00 | 91 | 1012.3 |
| 20260905101545 | 76 | 173 | 0.0 | 0.0 | 0.00 | 0.00 | 0.00 | 91 | 1012.1 |
| 20260905094543 | 76 | 173 | 0.0 | 0.0 | 0.00 | 0.00 | 0.00 | 90 | 1012.2 |
| 20260905093042 | 76 | 173 | 0.0 | 0.0 | 0.00 | 0.00 | 0.00 | 90 | 1012.1 |
| 20260905091555 | 76 | 173 | 0.0 | 0.0 | 0.00 | 0.00 | 0.00 | 89 | 1012.2 |
| 20260905090040 | 77 | 173 | 0.0 | 0.0 | 0.00 | 0.00 | 0.00 | 89 | 1012.1 |
| 20260905084540 | 77 | 173 | 0.0 | 0.0 | 0.00 | 0.00 | 0.00 | 89 | 1012.1 |
| 20260905083038 | 77 | 173 | 0.0 | 0.0 | 0.00 | 0.00 | 0.00 | 88 | 1012.1 |
| 20260905081537 | 77 | 173 | 0.0 | 0.0 | 0.00 | 0.00 | 0.00 | 88 | 1012.2 |
| 20260905080039 | 77 | 173 | 0.0 | 0.0 | 0.00 | 0.00 | 0.00 | 88 | 1012.2 |
| 20260905074548 | 78 | 173 | 0.0 | 0.0 | 0.00 | 0.00 | 0.00 | 87 | 1012.2 |
| 20260905073055 | 78 | 173 | 0.0 | 0.0 | 0.00 | 0.00 | 0.00 | 87 | 1012.2 |
| 20260905071532 | 78 | 173 | 0.0 | 0.0 | 0.00 | 0.00 | 0.00 | 86 | 1012.4 |
| 20260905070031 | 79 | 173 | 0.0 | 0.0 | 0.00 | 0.00 | 0.00 | 86 | 1012.4 |
| 20260905064528 | 79 | 173 | 0.0 | 0.0 | 0.00 | 0.00 | 0.00 | 85 | 1012.3 |
| 20260905063028 | 79 | 173 | 0.0 | 0.0 | 0.00 | 0.00 | 0.00 | 84 | 1012.4 |
| 20260905061525 | 80 | 173 | 0.0 | 0.0 | 0.00 | 0.00 | 0.00 | 83 | 1012.3 |
| 20260905060023 | 80 | 173 | 0.0 | 0.0 | 0.00 | 0.00 | 0.00 | 82 | 1012.3 |
| 20260905054521 | 80 | 173 | 0.0 | 0.0 | 0.00 | 0.00 | 0.00 | 81 | 1012.3 |
| 20260905053025 | 81 | 173 | 0.0 | 0.0 | 0.00 | 0.00 | 0.00 | 80 | 1012.3 |
| 20260905051518 | 81 | 173 | 0.0 | 0.0 | 0.00 | 0.00 | 0.00 | 80 | 1012.3 |
| 20260905050018 | 81 | 173 | 0.0 | 0.0 | 0.00 | 0.00 | 0.00 | 79 | 1012.3 |
| 20260905044519 | 82 | 173 | 0.0 | 0.0 | 0.00 | 0.00 | 0.00 | 78 | 1012.4 |
| 20260905043016 | 82 | 173 | 0.0 | 0.0 | 0.00 | 0.00 | 0.00 | 77 | 1012.5 |
| 20260905041514 | 82 | 173 | 0.0 | 0.0 | 0.00 | 0.00 | 0.00 | 77 | 1012.5 |
| 20260905040017 | 83 | 173 | 0.0 | 0.0 | 0.00 | 0.00 | 0.00 | 76 | 1012.5 |
| 20260905034513 | 84 | 173 | 0.0 | 0.0 | 0.00 | 0.00 | 0.00 | 74 | 1012.5 |
| 20260905033025 | 85 | 173 | 0.0 | 0.0 | 0.00 | 0.00 | 0.00 | 72 | 1012.5 |
| 20260905031520 | 86 | 173 | 0.0 | 0.0 | 0.00 | 0.00 | 0.00 | 69 | 1012.5 |
| 20260905030012 | 87 | 173 | 0.0 | 0.0 | 0.00 | 0.00 | 0.00 | 67 | 1012.6 |
| 20260905024512 | 88 | 173 | 0.0 | 0.0 | 0.00 | 0.00 | 0.00 | 65 | 1012.4 |
| 20260905023036 | 87 | 173 | 0.0 | 0.0 | 0.00 | 0.00 | 0.00 | 65 | 1012.4 |
| 20260905021510 | 86 | 134 | 0.0 | 1.0 | 0.00 | 0.00 | 0.00 | 67 | 1012.4 |
| 20260905020021 | 85 | 28 | 0.0 | 0.0 | 0.00 | 0.00 | 0.00 | 72 | 1012.2 |
| 20260905014511 | 86 | 140 | 0.0 | 0.0 | 0.00 | 0.00 | 0.00 | 71 | 1012.0 |
| 20260905013010 | 87 | 140 | 0.0 | 0.0 | 0.00 | 0.00 | 0.00 | 70 | 1011.9 |